User: anonymous   Login
Location: Newark
(58.8333°N, 23.5833°E)
Time: 19:54:51
(UTC+00:00)
Language:

Courier 1B - Orbit

View from above orbital plane
View from above orbital plane
View from above satellite
View from above satellite

Ground track
Ground track

The orbit data is extracted from the following two-line orbital elements,

1    58U 60013A   19315.53542689  .00000088  00000-0  86893-5 0  9999
2    58  28.3258 125.2523 0164918  56.7951 304.8291 13.46319492909620
Epoch (UTC): 11 November 2019 12:51:00
Eccentricity: 0.0164918
inclination: 28.3258°
perigee height: 963 km
apogee height: 1209 km
right ascension of ascending node: 125.2523°
argument of perigee: 56.7951°
revolutions per day: 13.46319492
mean anomaly at epoch: 304.8291°
orbit number at epoch: 90962

The dashed part of the orbit path shows where the satellite is in the earth's shadow,  

DLR